Location: B?ezina
(49.8085°N, 13.6013°E)
Time: 00:16:48
(UTC+00:00)

Cosmos 2154 Rocket - Pass Details

Date: 19 May 2025
Orbit: 965 x 996 km, 82.9° (Epoch: 22 June)

Event Time Altitude Azimuth Distance (km) Brightness Sun altitude
Rises 19:49:32 0° 348° (NNW) 3,668 8.1 -8.3°
Reaches altitude 10° 19:52:04 10° 346° (NNW) 2,716 7.4 -8.6°
Maximum altitude 19:58:12 66° 266° (W) 1,052 4.4 -9.3°
Drops below altitude 10° 20:04:19 10° 185° (S) 2,705 5.9 -9.9°
Enters shadow 20:06:36 - 183° (S) 3,563 6.5 -10.2°
